This demonstration page uses our WeatherBlox Daily Observations layout. Learn more.

Left ArrowRight Arrow

Hourly Observations for March 10, 2021

Temp ( °F °C ) Dew Point ( °F °C ) Humidity (%) Winds ( mph kmh ) Pressure ( in mb ) Visibility ( mi km ) Precip ( " mm )
12:15 am 00:15 Partly Cloudy 57 14 50 10 77 77 ENE 12 19 29.59 1002 10 16 N/A
12:35 am 00:35 Mostly Cloudy 57 14.1 50 10 77 77 E 10 17 29.57 1001 10 16 N/A
12:55 am 00:55 Partly Cloudy 56 13.4 50 9.8 79 79 NE 10 17 29.57 1001 10 16 N/A
1:15 am 01:15 Mostly Cloudy 57 14.1 50 10.2 78 78 E 15 24 29.55 1001 10 16 N/A
1:35 am 01:35 Partly Cloudy 57 13.8 50 9.9 78 78 NE 8 13 29.55 1001 10 16 N/A
1:55 am 01:55 Partly Cloudy 54 12.1 49 9.5 84 84 ENE 12 19 29.55 1001 10 16 N/A
2:15 am 02:15 Partly Cloudy 55 12.5 50 9.9 84 84 E 10 17 29.55 1001 10 16 N/A
2:35 am 02:35 Clear 53 11.9 49 9.4 85 85 E 9 15 29.55 1001 10 16 N/A
2:55 am 02:55 Clear 51 10.8 48 8.8 88 88 ESE 5 7 29.55 1001 10 16 N/A
3:15 am 03:15 Clear 49 9.5 46 7.9 90 90 N N/A 29.54 1000 10 16 N/A
3:35 am 03:35 Clear 47 8.4 45 7.1 92 92 N N/A 29.54 1000 10 16 N/A
3:55 am 03:55 Clear 48 8.7 46 7.5 92 92 N N/A 29.53 1000 10 16 N/A
4:15 am 04:15 Clear 46 7.6 44 6.7 94 94 NNE 6 9 29.53 1000 10 16 N/A
4:35 am 04:35 Clear 46 7.6 44 6.7 94 94 N 10 17 29.53 1000 10 16 N/A
4:55 am 04:55 Clear 46 7.5 44 6.5 93 93 NNE 9 15 29.53 1000 10 16 N/A
5:15 am 05:15 Clear 46 7.8 44 6.5 92 92 NE 8 13 29.53 1000 10 16 N/A
5:35 am 05:35 Clear 45 7.1 42 5.6 90 90 NE 10 17 29.54 1000 10 16 N/A
5:55 am 05:55 Clear 46 7.6 42 5.6 87 87 NE 8 13 29.52 1000 10 16 N/A
6:15 am 06:15 Clear 45 7.2 41 5.1 87 87 NE 6 9 29.52 1000 10 16 N/A
6:35 am 06:35 Clear 43 6.3 40 4.5 88 88 ENE 10 17 29.52 1000 10 16 N/A
6:55 am 06:55 Clear 43 6.3 41 4.9 91 91 E 8 13 29.52 1000 10 16 N/A
7:15 am 07:15 Sunny 43 6.2 41 4.9 91 91 N N/A 29.52 1000 10 16 N/A
7:35 am 07:35 Sunny 41 5.2 39 3.9 91 91 WNW 3 6 29.53 1000 10 16 N/A
7:55 am 07:55 Sunny 43 6.3 41 4.8 90 90 WSW 3 6 29.54 1000 10 16 N/A
8:15 am 08:15 Sunny 46 7.7 40 4.7 82 82 NW 6 9 29.52 1000 10 16 N/A
8:35 am 08:35 Sunny 47 8.1 42 5.3 83 83 N 7 11 29.53 1000 10 16 N/A
8:55 am 08:55 Sunny 47 8.4 41 5.1 80 80 NNW 10 17 29.54 1000 10 16 N/A
9:15 am 09:15 Mostly Cloudy 47 8.2 41 4.8 79 79 NNW 13 20 29.56 1001 10 16 N/A
9:35 am 09:35 Cloudy 47 8.1 40 4.5 78 78 NNW 12 19 29.56 1001 10 16 N/A
9:55 am 09:55 Cloudy 47 8.3 39 4.1 75 75 NNW 12 19 29.57 1001 10 16 N/A
10:15 am 10:15 Cloudy 47 8.5 39 4.1 74 74 NW 12 19 29.59 1002 10 16 N/A
10:35 am 10:35 Cloudy 47 8.2 39 3.7 74 74 NW 14 22 29.62 1003 10 16 N/A
10:55 am 10:55 Cloudy 46 7.6 38 3.4 75 75 WNW 13 20 29.63 1004 10 16 N/A
11:15 am 11:15 Cloudy 44 6.8 38 3.1 78 78 W 17 28 29.66 1004 10 16 N/A
11:35 am 11:35 Cloudy 44 6.8 37 3 77 77 W 20 31 29.67 1005 10 16 N/A
11:55 am 11:55 Cloudy 44 6.5 37 2.7 77 77 W 18 30 29.68 1005 10 16 N/A
12:15 pm 12:15 Cloudy 43 6.1 37 2.5 78 78 W 17 28 29.71 1006 10 16 N/A
12:35 pm 12:35 Cloudy 44 6.5 36 2.4 75 75 WNW 16 26 29.70 1006 10 16 N/A
12:55 pm 12:55 Cloudy 43 6.2 35 1.6 73 73 WNW 18 30 29.72 1006 10 16 N/A
1:15 pm 13:15 Cloudy 43 6.2 34 1.3 71 71 WNW 16 26 29.73 1007 10 16 N/A
1:35 pm 13:35 Cloudy 44 6.9 34 1.2 67 67 WNW 18 30 29.73 1007 10 16 N/A
1:55 pm 13:55 Cloudy 44 6.5 34 1 68 68 WNW 18 30 29.74 1007 10 16 N/A
2:15 pm 14:15 Cloudy 44 6.7 34 0.9 67 67 WNW 17 28 29.75 1008 10 16 N/A
2:35 pm 14:35 Cloudy 44 6.8 33 0.4 64 64 W 15 24 29.76 1008 10 16 N/A
2:55 pm 14:55 Cloudy 44 6.7 32 0.1 63 63 WNW 17 28 29.78 1009 10 16 N/A
3:15 pm 15:15 Cloudy 44 6.7 32 undefined 63 63 W 17 28 29.79 1009 10 16 N/A
3:35 pm 15:35 Cloudy 45 7 32 undefined 61 61 WNW 18 30 29.81 1009 10 16 N/A
3:55 pm 15:55 Cloudy 44 6.9 31 -0.3 60 60 WNW 17 28 29.82 1010 10 16 N/A
4:15 pm 16:15 Cloudy 45 7 32 -0.2 61 61 WNW 17 28 29.83 1010 10 16 N/A
4:35 pm 16:35 Cloudy 45 7 31 -0.4 60 60 NW 17 28 29.84 1010 10 16 N/A
4:55 pm 16:55 Partly Cloudy 45 7 31 -0.6 59 59 WNW 16 26 29.86 1011 10 16 N/A
5:15 pm 17:15 Mostly Cloudy 45 7 30 -0.9 58 58 NW 15 24 29.86 1011 10 16 N/A
5:35 pm 17:35 Partly Cloudy 44 6.5 30 -1 59 59 NW 13 20 29.87 1012 10 16 N/A
5:55 pm 17:55 Partly Cloudy 43 6.2 30 -1.2 59 59 NW 17 28 29.89 1012 10 16 N/A
6:15 pm 18:15 Sunny 42 5.4 29 -1.6 61 61 NW 14 22 29.90 1013 10 16 N/A
6:35 pm 18:35 Sunny 40 4.5 29 -1.5 65 65 NNW 14 22 29.91 1013 10 16 N/A
6:55 pm 18:55 Clear 39 4 29 -1.5 68 68 NNW 14 22 29.91 1013 10 16 N/A
7:15 pm 19:15 Clear 38 3.5 29 -1.5 70 70 NNW 10 17 29.93 1014 10 16 N/A
7:35 pm 19:35 Clear 38 3.3 29 -1.5 71 71 NNW 8 13 29.96 1015 10 16 N/A
7:55 pm 19:55 Partly Cloudy 37 3 29 -1.5 73 73 NW 6 9 30.00 1016 10 16 N/A
8:15 pm 20:15 Partly Cloudy 36 2.2 29 -1.6 76 76 NW 8 13 30.01 1016 10 16 N/A
8:35 pm 20:35 Clear 36 2.2 29 -1.5 77 77 NW 8 13 30.01 1016 10 16 N/A
8:55 pm 20:55 Clear 35 1.7 29 -1.7 78 78 NNW 9 15 30.03 1017 10 16 N/A
9:15 pm 21:15 Clear 34 1.2 28 -2 79 79 NNW 8 13 30.03 1017 10 16 N/A
9:35 pm 21:35 Clear 34 1.1 29 -1.8 81 81 NW 9 15 30.05 1018 10 16 N/A
9:55 pm 21:55 Clear 34 1.1 29 -1.7 82 82 NW 9 15 30.05 1018 10 16 N/A
10:15 pm 22:15 Clear 33 0.6 28 -2 83 83 NW 9 15 30.07 1018 10 16 N/A
10:35 pm 22:35 Clear 33 0.5 28 -2.1 83 83 NNW 9 15 30.08 1019 10 16 N/A
10:55 pm 22:55 Clear 33 0.3 28 -2.2 84 84 NW 10 17 30.09 1019 10 16 N/A
11:15 pm 23:15 Clear 32 0.2 28 -2 85 85 NW 13 20 30.09 1019 10 16 N/A
11:35 pm 23:35 Clear 33 0.5 28 -2 84 84 NNW 14 22 30.07 1018 10 16 N/A
11:55 pm 23:55 Clear 33 0.5 28 -2.3 82 82 NNW 14 22 30.06 1018 10 16 N/A

Powered by AerisWeather